Regional Weather Roundup
Issued by NWS

Home | Current Version | Previous Version | Text Only | Print | Product List | Glossary On
Versions: 1 2 3 4 5 6 7 8 9 10 11 12 13 14 15 16 17 18 19 20 21 22 23 24 25 26 27 28 29 30 31 32 33 34 35 36 37 38 39 40 41 42 43 44 45 46 47 48 49 50
000
ASUS43 KDTX 281601
RWRMI
MICHIGAN HOURLY REGIONAL WEATHER ROUNDUP
NATIONAL WEATHER SERVICE DETROIT/PONTIAC MI
1100 AM EST SAT FEB 28 2015

NOTE: "FAIR" INDICATES FEW OR NO CLOUDS BELOW 12,000 FEET WITH NO
SIGNIFICANT WEATHER AND/OR OBSTRUCTION TO VISIBILITY.

MIZ047>049-052>055-059>063-066>070-074>076-081>083-281700-
SOUTHEAST LOWER MICHIGAN

CITY           SKY/WX    TMP DP  RH WIND       PRES   REMARKS
ADRIAN         SUNNY     11   1  64 CALM      30.76S
ALMA           SUNNY     12   4  70 S10       30.72S WCI  -1
ANN ARBOR      SUNNY     13   0  56 SW8       30.75S WCI   2
BAD AXE        SUNNY     15   6  69 W8        30.72R WCI   4
CARO           SUNNY     18   5  57 SW7       30.71F WCI   8
DETROIT CITY   SUNNY     18   4  54 SW7       30.77S WCI   9
DETROIT        MOSUNNY   15   1  53 S5        30.78S WCI   8
FLINT          SUNNY     16  -1  47 SW9       30.73S WCI   4
GROSSE ILE     SUNNY     12   1  62 CALM      30.77S
HILLSDALE      SUNNY     14   1  55 SW7       30.70S WCI   4
HOWELL         SUNNY     15   1  54 SW9       30.72S WCI   3

CITY           SKY/WX    TMP DP  RH WIND       PRES   REMARKS
JACKSON        SUNNY     14   1  56 SW10      30.71F WCI   1
LAMBERTVILLE   SUNNY     19   3  49 S6        30.77S WCI  11
LANSING        SUNNY     13  -1  54 SW13      30.72F WCI  -2
LAPEER         FAIR      17   3  54 W7        30.72S WCI   7
MASON          SUNNY     13  -2  51 S5        30.71F WCI   5
MONROE         SUNNY     16   3  57 CALM      30.76S
MT. CLEMENS    MOSUNNY   16   2  52 SW10      30.73F WCI   4
PONTIAC        MOSUNNY   15   1  53 SW8       30.71S WCI   4
PORT HOPE        N/A     16   5  62 VRB6      30.70S WCI   7
PORT HURON     SUNNY     14   3  62 S7        30.75S WCI   4
TRI CITIES     SUNNY     15   5  64 SW9       30.72S WCI   3
TROY           SUNNY     20   2  46 SW10      30.76S WCI   8
SAGINAW HB     SUNNY     18   5  57 SW9       30.72F WCI   6
$$
MIZ043>046-050>051-056>058-064>065-071>073-077>080-281700-
SOUTHWEST LOWER MICHIGAN

CITY           SKY/WX    TMP DP  RH WIND       PRES   REMARKS
BATTLE CREEK   SUNNY     11  -2  56 S10       30.71F WCI  -3
BENTON HARBOR  SUNNY     10  -3  55 S8        30.73F WCI  -2
BIG RAPIDS     SUNNY     17  10  72 SW8       30.65S WCI   6
COLDWATER      SUNNY     10  -2  57 CALM      30.71F
FREMONT        FAIR      15   7  70 S8        30.68S WCI   4
HOLLAND        SUNNY     11   2  67 S8        30.73R WCI  -1
GRAND RAPIDS   MOSUNNY   12   3  67 S10       30.72R WCI  -1
IONIA          FAIR      13   3  63 S6        30.71S WCI   4
KALAMAZOO      SUNNY     11  -2  56 S7        30.72F WCI   0
LUDINGTON      SUNNY     18   8  63 SW10      30.68R WCI   6
MARSHALL       SUNNY     12  -2  53 S5        30.71F WCI   4
MOUNT PLEASANT SUNNY     16   7  68 S6        30.69S WCI   7
MUSKEGON       LGT SNOW  17  10  74 S10       30.71S WCI   5
SOUTH HAVEN    SUNNY     16   2  54 SE6       30.73S WCI   7
$$
MIZ016>042-281700-
NORTHERN LOWER MICHIGAN

CITY           SKY/WX    TMP DP  RH WIND       PRES   REMARKS
ALPENA         SUNNY     19   5  54 W13G18    30.64S WCI   6
BEAVER ISLAND  SUNNY     15   8  71 SW10      30.60S WCI   3
BELLAIRE       SUNNY     19   6  58 SW6       30.65S WCI  10
CADILLAC       SUNNY     15   6  67 SW8       30.58S WCI   4
CHARLEVOIX     FAIR      17   7  65 SW13      30.65S WCI   3
FRANKFORT      MOSUNNY   19  10  67 SW8       30.65S WCI   9
GAYLORD        SUNNY     15   4  61 SW13      30.56S WCI   1
GRAYLING       SUNNY     17   6  60 SW9       30.60S WCI   6
HARBOR SPRINGS SUNNY     15   5  64 SW9       30.61S WCI   4
HOUGHTON LAKE  SUNNY     14   5  67 SW8       30.62S WCI   3
MANISTEE       SUNNY     18   7  62 SW10      30.66S WCI   6
OSCODA         SUNNY     18   7  63 SW12      30.66F WCI   5
PELLSTON       SUNNY     17   5  59 SW14G22   30.61R WCI   3
ROGERS CITY    SUNNY     18   8  63 SW13      30.63S WCI   5
TRAVERSE CITY  MOSUNNY   18   7  62 SW13G20   30.63S WCI   5
$$
MIZ007>008-015-281700-
EASTERN UPPER MICHIGAN

CITY           SKY/WX    TMP DP  RH WIND       PRES   REMARKS
KINROSS        SUNNY     18   5  57 SW8       30.57R WCI   7
MACKINAC ISLAN SUNNY     13   6  72 SW9G16    30.59S WCI   1
NEWBERRY       SUNNY     10   0  62 SW6       30.55S WCI   1
S. S. MARIE    SUNNY      8  -1  66 CALM      30.58S
MUNISING         N/A     16  -2  45 S3        30.55S
$$
MIZ004>006-011>014-085-281700-
CENTRAL UPPER MICHIGAN

CITY           SKY/WX    TMP DP  RH WIND       PRES   REMARKS
MANISTIQUE     SUNNY     14   1  56 SW6       30.58S WCI   5
ESCANABA       SUNNY     12   0  57 S7        30.61S WCI   2
MENOMINEE      SUNNY     10   0  61 SW5       30.62S WCI   2
SAWYER-GWINN   SUNNY      9  -4  56 S7        30.49S WCI  -3
$$
MIZ001>003-009>011-084-281700-
WESTERN UPPER MICHIGAN

CITY           SKY/WX    TMP DP  RH WIND       PRES   REMARKS
IRON MOUNTAIN  SUNNY     10  -1  61 CALM      30.51F
HOUGHTON       SUNNY     10  -1  61 S7        30.45S WCI  -1
COPPER HARBOR    N/A     17   1  49 CALM      30.47F
IRONWOOD       SUNNY     10   1  67 SW8       30.43S WCI  -1
$$

ABBREVIATIONS USED IN REMARKS
   TC - TEMPERATURE IN CELSIUS
  WCI - WIND CHILL INDEX
   HX - HEAT INDEX
  VSB - VISIBILITY




USA.gov is the U.S. government's official web portal to all federal, state and local government web resources and services.